Burke Lakefront Airport
KBKL : now visible

Airfield :











YOU CAN JOIN US ON...

 
LOGIN :

Register | Disclaimer

   EN    FR    IT 

 









Legend :    VFR   Marginal VFR   IFR   Intensive IFR   Very Intensive IFR
Visi :
Ceiling :
>= 8 km
>= 3000ft
5 to 8 km
1000 to 3000 ft
1500m to 5 km
500 to 1000 ft
800 to 1500m
200 to 500 ft
< 800m
< 200 ft
Symbols :   Thunderstorms  Fog  Heavy snow  Heavy precipitations  Wind > 20 kt






- Airport Elevation : 583 ft
- IATA code : BKL


KBKL - Burke Lakefront

CURRENT METAR :
  • 080953Z 26007KT 5SM BR CLR 11/09 A2960 RMK AO2 SLP021 T01110094

EXPIRED METARs :
  • 080853Z 22008KT 10SM SCT022 14/11 A2957 RMK AO2 SLP013 60001 T01390106 55004
  • 080844Z 22007KT 10SM BKN022 BKN060 14/11 A2957 RMK AO2 T01440106
  • 080753Z 19005KT 10SM CLR 14/11 A2955 RMK AO2 SLP006 T01390106

TAF N/A



MET'MAP, your aeronautical weather chart ! - Copyright ORBIFLY December 2007 - Disclaimer

ORBIFLY MET'MAP TEAM :

Programming & Development : Alexandra Zaïnal
Concept & original design : Baudouin d'Aumeries
Assistance for programming : Marc-Olivier Méhu
Technical & hardware support : Manuel Goepfert

Contact : metmap@orbifly.com




SOURCES & CREDITS :

   NOAA       Earth
Advisory